User: anonymous
Location: Mount Wilson Observatory
(34.2257°N, 118.0571°W)
Time: 17:20:41
(UTC-07:00)
Language:

ATLAS 3B CENTAUR R/B - Orbit

View from above orbital plane
View from above orbital plane
View from above satellite
View from above satellite

Ground track
Ground track

The orbit data is extracted from the following two-line orbital elements,

1 28118U 03057B   14274.45995926  .00077038  00000-0  18653-2 0  7901
2 28118 028.1342 273.1512 3825009 090.4209 021.2841 07.83975685203881
Epoch (UTC): 01 October 2014 11:02:20
Eccentricity: 0.3825009
inclination: 28.1342°
perigee height: 231 km
apogee height: 8419 km
right ascension of ascending node: 273.1512°
argument of perigee: 90.4209°
revolutions per day: 7.83975685
mean anomaly at epoch: 21.2841°
orbit number at epoch: 20388

The dashed part of the orbit path shows where the satellite is in the earth's shadow,  

DLR